Time,TemperatureF,DewpointF,PressureIn,WindDirection,WindDirectionDegrees,WindSpeedMPH,WindSpeedGustMPH,Humidity,HourlyPrecipIn,Conditions,Clouds,dailyrainin,SoftwareType,DateUTC
2013-07-10 00:01:00,73.0,72.0,30.11,NE,37,0.0,0.0,96,0.00,,,0.00,,2013-07-10 04:01:00,
2013-07-10 00:11:00,73.0,72.0,30.10,NE,38,0.0,0.0,96,0.00,,,0.00,,2013-07-10 04:11:00,
2013-07-10 00:33:00,73.0,72.0,30.10,NE,38,0.0,0.0,97,0.00,,,0.00,,2013-07-10 04:33:00,
2013-07-10 00:43:00,73.0,72.0,30.10,NE,37,0.0,0.0,97,0.00,,,0.00,,2013-07-10 04:43:00,
2013-07-10 00:52:00,73.0,72.0,30.10,NE,38,0.0,0.0,97,0.00,,,0.00,,2013-07-10 04:52:00,
2013-07-10 01:02:00,72.0,71.0,30.10,NE,38,0.0,0.0,97,0.00,,,0.00,,2013-07-10 05:02:00,
2013-07-10 01:12:00,72.0,71.0,30.10,NE,38,0.0,0.0,97,0.00,,,0.00,,2013-07-10 05:12:00,
2013-07-10 01:32:00,72.0,71.0,30.10,NE,37,0.0,0.0,97,0.00,,,0.00,,2013-07-10 05:32:00,
2013-07-10 01:42:00,72.0,71.0,30.09,NE,38,0.0,0.0,98,0.00,,,0.00,,2013-07-10 05:42:00,
2013-07-10 01:53:00,72.0,71.0,30.10,NE,37,0.0,0.0,98,0.00,,,0.00,,2013-07-10 05:53:00,
2013-07-10 02:01:00,72.0,71.0,30.09,NE,37,0.0,0.0,98,0.00,,,0.00,,2013-07-10 06:01:00,
2013-07-10 02:11:00,72.0,71.0,30.09,NE,37,0.0,0.0,98,0.00,,,0.00,,2013-07-10 06:11:00,
2013-07-10 02:32:00,72.0,71.0,30.09,NE,37,0.0,0.0,98,0.00,,,0.00,,2013-07-10 06:32:00,
2013-07-10 02:42:00,72.0,71.0,30.09,NE,37,0.0,0.0,98,0.00,,,0.00,,2013-07-10 06:42:00,
2013-07-10 02:52:00,72.0,71.0,30.08,NE,37,0.0,0.0,98,0.00,,,0.00,,2013-07-10 06:52:00,
2013-07-10 03:01:00,72.0,71.0,30.09,NE,37,0.0,0.0,98,0.00,,,0.00,,2013-07-10 07:01:00,
2013-07-10 03:12:00,72.0,71.0,30.09,NE,37,0.0,0.0,98,0.00,,,0.00,,2013-07-10 07:12:00,
2013-07-10 03:22:00,72.0,71.0,30.09,NE,38,0.0,0.0,98,0.00,,,0.00,,2013-07-10 07:22:00,
2013-07-10 03:33:00,71.0,70.0,30.08,NE,37,0.0,0.0,98,0.00,,,0.00,,2013-07-10 07:33:00,
2013-07-10 03:43:00,71.0,70.0,30.08,NE,37,0.0,0.0,98,0.00,,,0.00,,2013-07-10 07:43:00,
2013-07-10 03:53:00,71.0,70.0,30.08,NE,38,0.0,0.0,98,0.00,,,0.00,,2013-07-10 07:53:00,
2013-07-10 04:01:00,70.0,69.0,30.08,NE,38,0.0,0.0,98,0.00,,,0.00,,2013-07-10 08:01:00,
2013-07-10 04:11:00,70.0,69.0,30.08,NE,38,0.0,0.0,98,0.00,,,0.00,,2013-07-10 08:11:00,
2013-07-10 04:23:00,70.0,69.0,30.08,NE,38,0.0,0.0,98,0.00,,,0.00,,2013-07-10 08:23:00,
2013-07-10 04:33:00,70.0,70.0,30.08,NE,38,0.0,0.0,99,0.00,,,0.00,,2013-07-10 08:33:00,
2013-07-10 04:42:00,70.0,70.0,30.08,NE,38,0.0,0.0,99,0.00,,,0.00,,2013-07-10 08:42:00,
2013-07-10 04:53:00,70.0,70.0,30.08,NE,37,0.0,0.0,99,0.00,,,0.00,,2013-07-10 08:53:00,
2013-07-10 05:02:00,70.0,69.0,30.08,NE,38,0.0,0.0,98,0.00,,,0.00,,2013-07-10 09:02:00,
2013-07-10 05:12:00,70.0,69.0,30.08,NE,38,0.0,0.0,98,0.00,,,0.00,,2013-07-10 09:12:00,
2013-07-10 05:32:00,70.0,69.0,30.08,NE,38,0.0,0.0,98,0.00,,,0.00,,2013-07-10 09:32:00,
2013-07-10 05:42:00,69.0,69.0,30.07,NE,37,0.0,0.0,99,0.00,,,0.00,,2013-07-10 09:42:00,
2013-07-10 05:53:00,69.0,69.0,30.08,NE,38,0.0,0.0,99,0.00,,,0.00,,2013-07-10 09:53:00,
2013-07-10 06:01:00,69.0,69.0,30.08,NE,38,0.0,0.0,99,0.00,,,0.00,,2013-07-10 10:01:00,
2013-07-10 06:13:00,70.0,70.0,30.08,NE,38,0.0,0.0,99,0.00,,,0.00,,2013-07-10 10:13:00,
2013-07-10 06:23:00,70.0,70.0,30.07,NE,38,0.0,0.0,99,0.00,,,0.00,,2013-07-10 10:23:00,
2013-07-10 06:50:00,-999.0,-99.9,30.07,NE,38,0.0,0.0,-999,-99.99,,,-99.99,,2013-07-10 10:50:00,
2013-07-10 07:00:00,-999.0,-99.9,30.07,NE,37,0.0,0.0,-999,-99.99,,,-99.99,,2013-07-10 11:00:00,
2013-07-10 07:11:00,70.0,70.0,30.08,NE,38,0.0,0.0,99,0.00,,,0.00,,2013-07-10 11:11:00,
2013-07-10 07:23:00,70.0,70.0,30.08,NE,37,0.0,0.0,99,0.00,,,0.00,,2013-07-10 11:23:00,
2013-07-10 07:43:00,71.0,71.0,30.08,NE,38,0.0,0.0,99,0.00,,,0.00,,2013-07-10 11:43:00,
2013-07-10 07:52:00,72.0,72.0,30.08,NE,38,0.0,0.0,99,0.00,,,0.00,,2013-07-10 11:52:00,
2013-07-10 08:02:00,72.0,72.0,30.08,NE,38,0.0,0.0,99,0.00,,,0.00,,2013-07-10 12:02:00,
2013-07-10 08:11:00,74.0,74.0,30.08,NE,38,0.0,0.0,99,0.00,,,0.00,,2013-07-10 12:11:00,
2013-07-10 08:22:00,75.0,75.0,30.08,NE,38,0.0,0.0,99,0.00,,,0.00,,2013-07-10 12:22:00,
2013-07-10 08:33:00,75.0,75.0,30.08,NE,38,0.0,0.0,99,0.00,,,0.00,,2013-07-10 12:33:00,
2013-07-10 08:43:00,75.0,75.0,30.08,NE,38,0.0,0.0,99,0.00,,,0.00,,2013-07-10 12:43:00,
2013-07-10 08:53:00,76.0,76.0,30.09,NNE,28,0.0,0.0,99,0.00,,,0.00,,2013-07-10 12:53:00,
2013-07-10 09:11:00,76.0,76.0,30.10,NNE,28,0.0,0.0,99,0.00,,,0.00,,2013-07-10 13:11:00,
2013-07-10 09:22:00,77.0,77.0,30.10,NNE,28,0.0,0.0,99,0.00,,,0.00,,2013-07-10 13:22:00,
2013-07-10 09:32:00,77.0,77.0,30.10,NNE,28,0.0,0.0,99,0.00,,,0.00,,2013-07-10 13:32:00,
2013-07-10 09:43:00,77.0,77.0,30.10,NNE,28,0.0,0.0,99,0.00,,,0.00,,2013-07-10 13:43:00,
2013-07-10 09:52:00,77.0,76.0,30.10,North,5,0.0,3.0,97,0.00,,,0.00,,2013-07-10 13:52:00,
2013-07-10 10:01:00,79.0,76.0,30.09,North,5,0.0,0.0,92,0.00,,,0.00,,2013-07-10 14:01:00,
2013-07-10 10:11:00,79.0,76.0,30.09,North,5,0.0,0.0,92,0.00,,,0.00,,2013-07-10 14:11:00,
2013-07-10 10:33:00,81.0,77.0,30.09,North,360,0.0,0.0,87,0.00,,,0.00,,2013-07-10 14:33:00,
2013-07-10 10:43:00,82.0,76.0,30.09,North,360,0.0,2.0,83,0.00,,,0.00,,2013-07-10 14:43:00,
2013-07-10 10:53:00,83.0,77.0,30.09,North,360,0.0,0.0,83,0.00,,,0.00,,2013-07-10 14:53:00,
2013-07-10 11:11:00,86.0,79.0,30.10,South,180,0.0,1.0,80,0.00,,,0.00,,2013-07-10 15:11:00,
2013-07-10 11:34:00,85.0,78.0,30.09,North,350,0.0,4.0,79,0.00,,,0.00,,2013-07-10 15:34:00,
2013-07-10 11:42:00,86.0,78.0,30.09,North,360,0.0,1.0,78,0.00,,,0.00,,2013-07-10 15:42:00,
2013-07-10 11:52:00,86.0,75.0,30.09,NNW,345,0.0,3.0,70,0.00,,,0.00,,2013-07-10 15:52:00,
2013-07-10 12:01:00,86.0,75.0,30.09,NNW,345,0.0,3.0,70,0.00,,,0.00,,2013-07-10 16:01:00,
2013-07-10 12:11:00,84.0,78.0,30.09,North,5,0.0,0.0,82,0.00,,,0.00,,2013-07-10 16:11:00,
2013-07-10 12:22:00,87.0,78.0,30.08,North,349,0.0,4.0,74,0.00,,,0.00,,2013-07-10 16:22:00,
2013-07-10 12:33:00,89.0,79.0,30.08,SSE,156,0.0,5.0,73,0.00,,,0.00,,2013-07-10 16:33:00,
2013-07-10 12:44:00,89.0,79.0,30.08,SSE,156,0.0,5.0,73,0.00,,,0.00,,2013-07-10 16:44:00,
2013-07-10 12:53:00,88.0,78.0,30.08,SSW,205,0.0,3.0,73,0.00,,,0.00,,2013-07-10 16:53:00,
2013-07-10 13:02:00,88.0,78.0,30.08,SSW,205,0.0,3.0,73,0.00,,,0.00,,2013-07-10 17:02:00,
2013-07-10 13:11:00,89.0,77.0,30.08,SSE,165,0.0,5.0,69,0.00,,,0.00,,2013-07-10 17:11:00,
2013-07-10 13:23:00,88.0,77.0,30.08,SSW,197,0.0,5.0,69,0.00,,,0.00,,2013-07-10 17:23:00,
2013-07-10 13:32:00,88.0,77.0,30.08,SSW,197,0.0,5.0,69,0.00,,,0.00,,2013-07-10 17:32:00,
2013-07-10 13:43:00,88.0,77.0,30.08,SSW,197,0.0,5.0,69,0.00,,,0.00,,2013-07-10 17:43:00,
2013-07-10 13:53:00,85.0,76.0,30.06,NNW,334,0.0,1.0,75,0.00,,,0.00,,2013-07-10 17:53:00,
2013-07-10 14:02:00,85.0,76.0,30.06,NNW,334,0.0,1.0,75,0.00,,,0.00,,2013-07-10 18:02:00,
2013-07-10 14:11:00,86.0,76.0,30.06,South,190,0.0,4.0,72,0.00,,,0.00,,2013-07-10 18:11:00,
2013-07-10 14:32:00,87.0,75.0,30.05,NNW,346,0.0,1.0,68,0.00,,,0.00,,2013-07-10 18:32:00,
2013-07-10 14:44:00,86.0,76.0,30.04,North,5,0.0,6.0,72,0.00,,,0.00,,2013-07-10 18:44:00,
2013-07-10 15:11:00,91.0,78.0,30.03,ESE,107,0.0,2.0,65,0.00,,,0.00,,2013-07-10 19:11:00,
2013-07-10 15:22:00,87.0,76.0,30.02,North,9,0.0,2.0,71,0.00,,,0.00,,2013-07-10 19:22:00,
2013-07-10 15:32:00,87.0,75.0,30.02,NW,325,0.0,1.0,67,0.00,,,0.00,,2013-07-10 19:32:00,
2013-07-10 15:42:00,87.0,75.0,30.02,NW,325,0.0,1.0,67,0.00,,,0.00,,2013-07-10 19:42:00,
2013-07-10 15:53:00,86.0,75.0,30.01,North,355,0.0,2.0,71,0.00,,,0.00,,2013-07-10 19:53:00,
2013-07-10 16:01:00,86.0,75.0,30.01,North,355,0.0,2.0,71,0.00,,,0.00,,2013-07-10 20:01:00,
2013-07-10 16:11:00,91.0,78.0,30.01,South,184,0.0,4.0,66,0.00,,,0.00,,2013-07-10 20:11:00,
2013-07-10 16:22:00,92.0,78.0,30.00,North,9,0.0,4.0,63,0.00,,,0.00,,2013-07-10 20:22:00,
2013-07-10 16:43:00,92.0,74.0,29.99,WSW,250,0.0,2.0,56,0.00,,,0.00,,2013-07-10 20:43:00,
2013-07-10 16:52:00,92.0,76.0,29.98,North,5,0.0,4.0,60,0.00,,,0.00,,2013-07-10 20:52:00,
2013-07-10 17:01:00,91.0,77.0,29.98,SSE,165,1.0,6.0,64,0.00,,,0.00,,2013-07-10 21:01:00,
2013-07-10 17:11:00,91.0,77.0,29.98,SSE,165,1.0,6.0,64,0.00,,,0.00,,2013-07-10 21:11:00,
2013-07-10 17:22:00,90.0,76.0,29.98,South,186,1.0,9.0,64,0.00,,,0.00,,2013-07-10 21:22:00,
2013-07-10 17:32:00,89.0,78.0,29.98,SSE,166,0.0,4.0,70,0.00,,,0.00,,2013-07-10 21:32:00,
2013-07-10 17:42:00,89.0,78.0,29.98,SSE,166,0.0,4.0,70,0.00,,,0.00,,2013-07-10 21:42:00,
2013-07-10 17:52:00,89.0,76.0,29.98,SSE,157,0.0,8.0,66,0.00,,,0.00,,2013-07-10 21:52:00,
2013-07-10 18:01:00,89.0,76.0,29.98,SSE,157,0.0,8.0,66,0.00,,,0.00,,2013-07-10 22:01:00,
2013-07-10 18:11:00,89.0,76.0,29.98,South,179,0.0,8.0,66,0.00,,,0.00,,2013-07-10 22:11:00,
2013-07-10 18:21:00,86.0,76.0,29.98,South,184,0.0,4.0,73,0.00,,,0.00,,2013-07-10 22:21:00,
2013-07-10 18:33:00,86.0,76.0,29.98,South,184,0.0,4.0,73,0.00,,,0.00,,2013-07-10 22:33:00,
2013-07-10 18:43:00,85.0,75.0,29.98,SSW,196,0.0,0.0,71,0.00,,,0.00,,2013-07-10 22:43:00,
2013-07-10 18:53:00,82.0,77.0,29.98,North,355,1.0,7.0,84,0.02,,,0.02,,2013-07-10 22:53:00,
2013-07-10 19:11:00,78.0,76.0,29.98,NNE,20,0.0,5.0,94,0.04,,,0.04,,2013-07-10 23:11:00,
2013-07-10 19:22:00,78.0,77.0,29.98,North,5,0.0,0.0,96,0.04,,,0.04,,2013-07-10 23:22:00,
2013-07-10 20:01:00,75.0,74.0,30.00,WSW,239,0.0,7.0,96,0.01,,,0.05,,2013-07-11 00:01:00,
2013-07-10 20:11:00,75.0,74.0,30.00,WSW,239,0.0,7.0,96,0.01,,,0.05,,2013-07-11 00:11:00,
2013-07-10 20:22:00,74.0,73.0,29.99,South,174,1.0,11.0,96,0.01,,,0.05,,2013-07-11 00:22:00,
2013-07-10 20:32:00,74.0,73.0,29.99,South,174,1.0,11.0,96,0.01,,,0.05,,2013-07-11 00:32:00,
2013-07-10 20:42:00,74.0,73.0,29.99,South,169,0.0,6.0,96,0.01,,,0.05,,2013-07-11 00:42:00,
2013-07-10 20:52:00,74.0,73.0,29.99,South,169,0.0,6.0,96,0.01,,,0.05,,2013-07-11 00:52:00,
2013-07-10 21:01:00,74.0,73.0,29.99,South,177,0.0,5.0,96,0.01,,,0.05,,2013-07-11 01:01:00,
2013-07-10 21:11:00,73.0,72.0,30.00,South,177,0.0,1.0,97,0.00,,,0.05,,2013-07-11 01:11:00,
2013-07-10 21:22:00,73.0,72.0,30.00,South,177,0.0,1.0,97,0.00,,,0.05,,2013-07-11 01:22:00,
2013-07-10 21:32:00,73.0,72.0,30.01,South,172,0.0,1.0,97,0.00,,,0.05,,2013-07-11 01:32:00,
2013-07-10 21:43:00,73.0,72.0,30.01,South,172,0.0,1.0,97,0.00,,,0.05,,2013-07-11 01:43:00,
2013-07-10 21:52:00,73.0,72.0,30.02,South,172,0.0,0.0,97,0.00,,,0.05,,2013-07-11 01:52:00,
2013-07-10 22:02:00,73.0,72.0,30.03,South,172,0.0,0.0,97,0.00,,,0.05,,2013-07-11 02:02:00,
2013-07-10 22:11:00,73.0,72.0,30.03,South,172,0.0,0.0,97,0.00,,,0.05,,2013-07-11 02:11:00,
2013-07-10 22:32:00,73.0,72.0,30.03,South,172,0.0,0.0,97,0.00,,,0.05,,2013-07-11 02:32:00,
2013-07-10 22:43:00,72.0,71.0,30.03,South,172,0.0,0.0,97,0.00,,,0.05,,2013-07-11 02:43:00,
2013-07-10 23:02:00,72.0,71.0,30.04,South,172,0.0,0.0,98,0.00,,,0.05,,2013-07-11 03:02:00,
2013-07-10 23:11:00,72.0,71.0,30.04,South,172,0.0,0.0,97,0.00,,,0.05,,2013-07-11 03:11:00,
2013-07-10 23:33:00,72.0,71.0,30.04,South,172,0.0,0.0,98,0.00,,,0.05,,2013-07-11 03:33:00,
2013-07-10 23:42:00,72.0,71.0,30.04,South,172,0.0,0.0,98,0.00,,,0.05,,2013-07-11 03:42:00,
2013-07-10 23:53:00,71.0,70.0,30.04,South,172,0.0,0.0,98,0.00,,,0.05,,2013-07-11 03:53:00,